START_TIME,STEP,MOV.,M15,t_acc.,M20,t_acc.
1981-08-30 12:00:44.440 ,5,0,0.,24.0,0.,24.0
1981-08-30 12:01:08.440 ,6,1,0.,24.0,0.,24.0
1981-08-30 12:01:32.440 ,6,0,0.,24.0,0.,24.0
1981-08-30 12:01:56.440 ,7,1,0.,24.0,0.,24.0
1981-08-30 12:02:20.440 ,7,0,0.,24.0,0.,24.0
1981-08-30 12:02:44.440 ,7,1,0.,24.0,0.,24.0
1981-08-30 12:03:08.440 ,7,0,0.,24.0,0.,24.0
1981-08-30 12:03:32.440 ,6,1,0.,24.0,0.,24.0
1981-08-30 12:03:56.440 ,6,0,0.,24.0,0.,24.0
1981-08-30 12:04:20.440 ,5,1,0.,24.0,0.,24.0
1981-08-30 12:04:44.440 ,5,0,0.,24.0,0.,24.0
1981-08-30 12:05:08.430 ,4,1,0.,24.0,0.,24.0
1981-08-30 12:05:32.440 ,4,0,0.,24.0,0.,24.0
1981-08-30 12:05:56.440 ,3,1,0.,24.0,0.,24.0
1981-08-30 12:06:20.440 ,3,0,0.,24.0,0.,24.0
1981-08-30 12:06:44.440 ,2,1,0.,24.0,0.,24.0
1981-08-30 12:07:08.430 ,2,0,0.,24.0,0.,24.0
1981-08-30 12:07:32.440 ,1,1,0.,24.0,0.,24.0
1981-08-30 12:07:56.440 ,1,0,0.,24.0,0.,24.0
1981-08-30 12:08:20.440 ,0,1,0.,24.0,0.,24.0
1981-08-30 12:08:44.430 ,0,0,0.,24.0,0.,24.0
1981-08-30 12:09:08.430 ,0,1,0.,24.0,0.,24.0
1981-08-30 12:09:32.430 ,0,0,0.,24.0,0.,24.0
1981-08-30 12:09:56.430 ,1,1,0.,24.0,0.,24.0
1981-08-30 12:10:20.430 ,1,0,0.,24.0,0.,24.0
1981-08-30 12:10:44.430 ,2,1,0.,24.0,0.,24.0
1981-08-30 12:11:08.430 ,2,0,0.,24.0,0.,24.0
1981-08-30 12:11:32.430 ,3,1,0.,24.0,0.,24.0
1981-08-30 12:11:56.430 ,4,1,0.,24.0,0.,24.0
1981-08-30 12:12:20.430 ,5,1,0.,24.0,0.,24.0
1981-08-30 12:12:44.430 ,6,1,0.,24.0,0.,24.0
1981-08-30 12:13:08.430 ,7,1,0.,24.0,0.,24.0
1981-08-30 12:13:32.430 ,7,1,0.,24.0,0.,24.0
1981-08-30 12:13:56.430 ,6,1,0.,24.0,0.,24.0
1981-08-30 12:14:20.430 ,5,1,0.,24.0,0.,24.0
1981-08-30 12:14:44.430 ,4,1,0.,24.0,0.,24.0
1981-08-30 12:15:08.430 ,3,1,0.,24.0,0.,24.0
1981-08-30 12:15:32.430 ,2,1,0.,24.0,0.,24.0
1981-08-30 12:15:56.430 ,1,1,0.,24.0,0.,24.0
1981-08-30 12:16:20.430 ,0,1,0.,24.0,0.,24.0
1981-08-30 12:16:44.430 ,0,1,0.,24.0,0.,24.0
1981-08-30 12:17:08.430 ,1,1,0.,24.0,0.,24.0
1981-08-30 12:17:32.440 ,2,1,0.,24.0,0.,24.0
1981-08-30 12:17:56.440 ,3,1,0.,24.0,0.,24.0
1981-08-30 12:18:20.440 ,3,0,0.,24.0,0.,24.0
1981-08-30 12:18:44.440 ,4,1,0.,24.0,0.,24.0
1981-08-30 12:19:08.440 ,4,0,0.,24.0,0.,24.0
1981-08-30 12:19:32.440 ,5,1,0.,24.0,0.,24.0
1981-08-30 12:19:56.440 ,5,0,0.,24.0,0.,24.0
1981-08-30 12:20:20.430 ,6,1,0.,24.0,0.,24.0
1981-08-30 12:20:44.430 ,6,0,0.,24.0,0.,24.0
1981-08-30 12:21:08.430 ,7,1,0.,24.0,0.,24.0
1981-08-30 12:21:32.430 ,7,0,0.,24.0,0.,24.0
1981-08-30 12:21:56.430 ,7,1,0.,24.0,0.,24.0
1981-08-30 12:22:20.430 ,7,0,0.,24.0,0.,24.0
1981-08-30 12:22:44.430 ,6,1,0.,24.0,0.,24.0
1981-08-30 12:23:08.430 ,6,0,0.,24.0,0.,24.0
1981-08-30 12:23:32.430 ,5,1,0.,24.0,0.,24.0
1981-08-30 12:23:56.430 ,5,0,0.,24.0,0.,24.0
1981-08-30 12:24:20.430 ,4,1,0.,24.0,0.,24.0
1981-08-30 12:24:44.430 ,4,0,0.,24.0,0.,24.0
1981-08-30 12:25:08.430 ,3,1,0.,24.0,0.,24.0
1981-08-30 12:25:32.430 ,3,0,0.,24.0,0.,24.0
1981-08-30 12:25:56.430 ,2,1,0.,24.0,0.,24.0
1981-08-30 12:26:20.430 ,2,0,0.,24.0,0.,24.0
1981-08-30 12:26:44.430 ,1,1,0.,24.0,0.,24.0
1981-08-30 12:27:08.430 ,1,0,0.,24.0,0.,24.0
1981-08-30 12:27:32.430 ,0,1,0.,24.0,0.,24.0
1981-08-30 12:27:56.430 ,0,0,0.,24.0,0.,24.0
1981-08-30 12:28:20.430 ,0,1,0.,24.0,0.,24.0
1981-08-30 12:28:44.430 ,0,0,0.,24.0,0.,24.0
1981-08-30 12:29:08.430 ,1,1,0.,24.0,0.,24.0
1981-08-30 12:29:32.430 ,1,0,0.,24.0,0.,24.0
1981-08-30 12:29:56.430 ,2,1,0.,24.0,0.,24.0
1981-08-30 12:30:20.430 ,2,0,0.,24.0,0.,24.0
1981-08-30 12:30:44.430 ,3,1,0.,24.0,0.,24.0
1981-08-30 12:31:08.430 ,4,1,0.,24.0,0.,24.0
1981-08-30 12:31:32.430 ,5,1,0.,24.0,0.,24.0
1981-08-30 12:31:56.430 ,6,1,0.,24.0,0.,24.0
1981-08-30 12:32:20.430 ,7,1,0.,24.0,0.,24.0
1981-08-30 12:32:44.430 ,7,1,0.,24.0,0.,24.0
1981-08-30 12:33:08.430 ,6,1,0.,24.0,0.,24.0
1981-08-30 12:33:32.430 ,5,1,0.,24.0,0.,24.0
1981-08-30 12:33:56.430 ,4,1,0.,24.0,0.,24.0
1981-08-30 12:34:20.430 ,3,1,0.,24.0,0.,24.0
1981-08-30 12:34:44.430 ,2,1,0.,24.0,0.,24.0
1981-08-30 12:35:08.430 ,1,1,0.,24.0,0.,24.0
1981-08-30 12:35:32.430 ,0,1,0.,24.0,0.,24.0
1981-08-30 12:35:56.430 ,0,1,0.,24.0,0.,24.0
1981-08-30 12:36:20.430 ,1,1,0.,24.0,0.,24.0
1981-08-30 12:36:44.430 ,2,1,0.,24.0,0.,24.0
1981-08-30 12:37:08.430 ,3,1,0.,24.0,0.,24.0
1981-08-30 12:37:32.430 ,3,0,0.,24.0,0.,24.0
1981-08-30 12:37:56.430 ,4,1,0.,24.0,0.,24.0
1981-08-30 12:38:20.430 ,4,0,0.,24.0,0.,24.0
1981-08-30 12:38:44.430 ,5,1,0.,24.0,0.,24.0
1981-08-30 12:39:08.430 ,5,0,0.,24.0,0.,24.0
1981-08-30 12:39:32.430 ,6,1,0.,24.0,0.,24.0
1981-08-30 12:39:56.430 ,6,0,0.,24.0,0.,24.0
1981-08-30 12:40:20.430 ,7,1,0.,24.0,0.,24.0
1981-08-30 12:40:44.430 ,7,0,0.,24.0,0.,24.0
1981-08-30 12:41:08.430 ,7,1,0.,24.0,0.,24.0
1981-08-30 12:41:32.430 ,7,0,0.,24.0,0.,24.0
1981-08-30 12:41:56.430 ,6,1,0.,24.0,0.,24.0
1981-08-30 12:42:20.430 ,6,0,0.,24.0,0.,24.0
1981-08-30 12:42:44.430 ,5,1,0.,24.0,0.,24.0
1981-08-30 12:43:08.430 ,5,0,0.,24.0,0.,24.0
1981-08-30 12:43:32.430 ,4,1,0.,24.0,0.,24.0
1981-08-30 12:43:56.430 ,4,0,0.,24.0,0.,24.0
1981-08-30 12:44:20.430 ,3,1,0.,24.0,0.,24.0
1981-08-30 12:44:44.430 ,3,0,0.,24.0,0.,24.0
1981-08-30 12:45:08.430 ,2,1,0.,24.0,0.,24.0
1981-08-30 12:45:32.430 ,2,0,0.,24.0,0.,24.0
1981-08-30 12:45:56.430 ,1,1,0.,24.0,0.,24.0
1981-08-30 12:46:20.430 ,1,0,0.,24.0,0.,24.0
1981-08-30 12:46:44.430 ,0,1,0.,24.0,0.,24.0
1981-08-30 12:47:08.430 ,0,0,0.,24.0,0.,24.0
1981-08-30 12:47:32.430 ,0,1,0.,24.0,0.,24.0
1981-08-30 12:47:56.430 ,0,0,0.,24.0,0.,24.0
1981-08-30 12:48:20.430 ,1,1,0.,24.0,0.,24.0
1981-08-30 12:48:44.430 ,1,0,0.,24.0,0.,24.0
1981-08-30 12:49:08.430 ,2,1,0.,24.0,0.,24.0
1981-08-30 12:49:32.430 ,2,0,0.,24.0,0.,24.0
1981-08-30 12:49:56.430 ,3,1,0.,24.0,0.,24.0
1981-08-30 12:50:20.430 ,4,1,0.,24.0,0.,24.0
1981-08-30 12:50:44.430 ,5,1,0.,24.0,0.,24.0
1981-08-30 12:51:08.430 ,6,1,0.,24.0,0.,24.0
1981-08-30 12:51:32.430 ,7,1,0.,24.0,0.,24.0
1981-08-30 12:51:56.430 ,7,1,0.,24.0,0.,24.0
1981-08-30 12:52:20.430 ,6,1,0.,24.0,0.,24.0
1981-08-30 12:52:44.430 ,5,1,0.,24.0,0.,24.0
1981-08-30 12:53:08.430 ,4,1,0.,24.0,0.,24.0
1981-08-30 12:53:32.430 ,3,1,0.,24.0,0.,24.0
1981-08-30 12:53:56.430 ,2,1,0.,24.0,0.,24.0
1981-08-30 12:54:20.430 ,1,1,0.,24.0,0.,24.0
1981-08-30 12:54:44.430 ,0,1,0.,24.0,0.,24.0
1981-08-30 12:55:08.430 ,0,1,0.,24.0,0.,24.0
1981-08-30 12:55:32.430 ,1,1,0.,24.0,0.,24.0
1981-08-30 12:55:56.430 ,2,1,0.,24.0,0.,24.0
1981-08-30 12:56:20.430 ,3,1,0.,24.0,0.,24.0
1981-08-30 12:56:44.430 ,3,0,0.,24.0,0.,24.0
1981-08-30 12:57:08.430 ,4,1,0.,24.0,0.,24.0
1981-08-30 12:57:32.430 ,4,0,1.,24.0,0.,24.0
1981-08-30 12:57:56.430 ,5,1,0.,24.0,0.,24.0
1981-08-30 12:58:20.430 ,5,0,0.,24.0,0.,24.0
1981-08-30 12:58:44.430 ,6,1,0.,24.0,0.,24.0
1981-08-30 12:59:08.430 ,6,0,0.,24.0,0.,24.0
1981-08-30 12:59:32.430 ,7,1,0.,24.0,0.,24.0
1981-08-30 12:59:56.430 ,7,0,0.,24.0,0.,24.0
1981-08-30 13:00:20.430 ,7,1,0.,24.0,0.,24.0
1981-08-30 13:00:44.430 ,7,0,0.,24.0,0.,24.0
1981-08-30 13:00:44.430 ,7,0,0.,24.0,0.,24.0
1981-08-30 13:01:08.430 ,6,1,0.,24.0,0.,24.0
1981-08-30 13:01:32.430 ,6,0,0.,24.0,0.,24.0
1981-08-30 13:01:56.430 ,5,1,0.,24.0,0.,24.0
1981-08-30 13:02:20.430 ,5,0,0.,24.0,0.,24.0
1981-08-30 13:02:44.430 ,4,1,0.,24.0,0.,24.0
1981-08-30 13:03:08.430 ,4,0,0.,24.0,0.,24.0
1981-08-30 13:03:32.430 ,3,1,0.,24.0,0.,24.0
1981-08-30 13:03:56.430 ,3,0,0.,24.0,0.,24.0
1981-08-30 13:04:20.430 ,2,1,0.,24.0,0.,24.0
1981-08-30 13:04:44.430 ,2,0,0.,24.0,0.,24.0
1981-08-30 13:05:08.430 ,1,1,0.,24.0,0.,24.0
1981-08-30 13:05:32.430 ,1,0,0.,24.0,0.,24.0
1981-08-30 13:05:56.430 ,0,1,0.,24.0,0.,24.0
1981-08-30 13:06:20.430 ,0,0,0.,24.0,0.,24.0
1981-08-30 13:06:44.430 ,0,1,0.,24.0,0.,24.0
1981-08-30 13:07:08.430 ,0,0,0.,24.0,0.,24.0
1981-08-30 13:07:32.430 ,1,1,0.,24.0,0.,24.0
1981-08-30 13:07:56.430 ,1,0,0.,24.0,0.,24.0
1981-08-30 13:08:20.430 ,2,1,0.,24.0,0.,24.0
1981-08-30 13:08:44.430 ,2,0,0.,24.0,0.,24.0
1981-08-30 13:09:08.430 ,3,1,0.,24.0,0.,24.0
1981-08-30 13:09:32.430 ,4,1,0.,24.0,0.,24.0
1981-08-30 13:09:56.430 ,5,1,0.,24.0,0.,24.0
1981-08-30 13:10:20.430 ,6,1,0.,24.0,0.,24.0
1981-08-30 13:10:44.430 ,7,1,0.,24.0,0.,24.0
1981-08-30 13:11:08.430 ,7,1,0.,24.0,0.,24.0
1981-08-30 13:11:32.430 ,6,1,0.,24.0,0.,24.0
1981-08-30 13:11:56.430 ,5,1,0.,24.0,0.,24.0
1981-08-30 13:12:20.430 ,4,1,0.,24.0,0.,24.0
1981-08-30 13:12:44.430 ,3,1,0.,24.0,0.,24.0
1981-08-30 13:13:08.430 ,2,1,0.,24.0,0.,24.0
1981-08-30 13:13:32.430 ,1,1,0.,24.0,0.,24.0
1981-08-30 13:13:56.430 ,0,1,0.,24.0,0.,24.0
1981-08-30 13:14:20.430 ,0,1,0.,24.0,0.,24.0
1981-08-30 13:14:44.430 ,1,1,0.,24.0,0.,24.0
1981-08-30 13:15:08.430 ,2,1,0.,24.0,0.,24.0
1981-08-30 13:15:32.430 ,3,1,0.,24.0,0.,24.0
1981-08-30 13:15:56.430 ,3,0,0.,24.0,0.,24.0
1981-08-30 13:16:20.430 ,4,1,0.,24.0,0.,24.0
1981-08-30 13:16:44.430 ,4,0,0.,24.0,0.,24.0
1981-08-30 13:17:08.430 ,5,1,0.,24.0,0.,24.0
1981-08-30 13:17:32.430 ,5,0,0.,24.0,0.,24.0
1981-08-30 13:17:56.430 ,6,1,1.,24.0,0.,24.0
1981-08-30 13:18:20.430 ,6,0,0.,24.0,0.,24.0
1981-08-30 13:18:44.430 ,7,1,0.,24.0,0.,24.0
1981-08-30 13:19:08.430 ,7,0,0.,24.0,0.,24.0
1981-08-30 13:19:32.430 ,7,1,0.,24.0,0.,24.0
1981-08-30 13:19:56.430 ,7,0,0.,24.0,0.,24.0
1981-08-30 13:20:20.430 ,6,1,0.,24.0,0.,24.0
1981-08-30 13:20:44.430 ,6,0,0.,24.0,0.,24.0
1981-08-30 13:21:08.430 ,5,1,0.,24.0,0.,24.0
1981-08-30 13:21:32.430 ,5,0,0.,24.0,0.,24.0
1981-08-30 13:21:56.430 ,4,1,0.,24.0,0.,24.0
1981-08-30 13:22:20.430 ,4,0,0.,24.0,0.,24.0
1981-08-30 13:22:44.430 ,3,1,0.,24.0,0.,24.0
1981-08-30 13:23:08.430 ,3,0,0.,24.0,0.,24.0
1981-08-30 13:23:32.430 ,2,1,0.,24.0,0.,24.0
1981-08-30 13:23:56.430 ,2,0,0.,24.0,0.,24.0
1981-08-30 13:24:20.430 ,1,1,0.,24.0,0.,24.0
1981-08-30 13:24:44.430 ,1,0,0.,24.0,0.,24.0
1981-08-30 13:25:08.430 ,0,1,0.,24.0,0.,24.0
1981-08-30 13:25:32.430 ,0,0,0.,24.0,0.,24.0
1981-08-30 13:25:56.430 ,0,1,0.,24.0,0.,24.0
1981-08-30 13:26:20.430 ,0,0,0.,24.0,0.,24.0
1981-08-30 13:26:44.430 ,1,1,0.,24.0,0.,24.0
1981-08-30 13:27:08.430 ,1,0,0.,24.0,0.,24.0
1981-08-30 13:27:32.430 ,2,1,0.,24.0,0.,24.0
1981-08-30 13:27:56.430 ,2,0,0.,24.0,0.,24.0
1981-08-30 13:28:20.430 ,3,1,0.,24.0,0.,24.0
1981-08-30 13:28:44.430 ,4,1,0.,24.0,0.,24.0
1981-08-30 13:29:08.430 ,5,1,0.,24.0,0.,24.0
1981-08-30 13:29:32.430 ,6,1,0.,24.0,0.,24.0
1981-08-30 13:29:56.430 ,7,1,0.,24.0,0.,24.0
1981-08-30 13:30:20.430 ,7,1,0.,24.0,0.,24.0
1981-08-30 13:30:44.430 ,6,1,0.,24.0,0.,24.0
1981-08-30 13:31:08.430 ,5,1,0.,24.0,0.,24.0
1981-08-30 13:31:32.430 ,4,1,0.,24.0,0.,24.0
1981-08-30 13:31:56.430 ,3,1,0.,24.0,0.,24.0
1981-08-30 13:32:20.430 ,2,1,0.,24.0,0.,24.0
1981-08-30 13:32:44.430 ,1,1,0.,24.0,0.,24.0
1981-08-30 13:33:08.430 ,0,1,0.,24.0,0.,24.0
1981-08-30 13:33:32.430 ,0,1,0.,24.0,0.,24.0
1981-08-30 13:33:56.430 ,1,1,0.,24.0,0.,24.0
1981-08-30 13:34:20.430 ,2,1,0.,24.0,0.,24.0
1981-08-30 13:34:44.430 ,3,1,0.,24.0,0.,24.0
1981-08-30 13:35:08.430 ,3,0,0.,24.0,0.,24.0
1981-08-30 13:35:32.430 ,4,1,0.,24.0,0.,24.0
1981-08-30 13:35:56.430 ,4,0,0.,24.0,0.,24.0
1981-08-30 13:36:20.430 ,5,1,0.,24.0,0.,24.0
1981-08-30 13:36:44.430 ,5,0,0.,24.0,0.,24.0
1981-08-30 13:37:08.430 ,6,1,0.,24.0,0.,24.0
1981-08-30 13:37:32.430 ,6,0,0.,24.0,0.,24.0
1981-08-30 13:37:56.430 ,7,1,0.,24.0,0.,24.0
1981-08-30 13:38:20.430 ,7,0,0.,24.0,0.,24.0
1981-08-30 13:38:44.430 ,7,1,0.,24.0,0.,24.0
1981-08-30 13:39:08.430 ,7,0,0.,24.0,0.,24.0
1981-08-30 13:39:32.430 ,6,1,0.,24.0,0.,24.0
1981-08-30 13:39:56.430 ,6,0,0.,24.0,0.,24.0
1981-08-30 13:40:20.430 ,5,1,0.,24.0,0.,24.0
1981-08-30 13:40:44.430 ,5,0,0.,24.0,0.,24.0
1981-08-30 13:41:08.430 ,4,1,0.,24.0,0.,24.0
1981-08-30 13:41:32.430 ,4,0,0.,24.0,0.,24.0
1981-08-30 13:41:56.430 ,3,1,0.,24.0,0.,24.0
1981-08-30 13:42:20.430 ,3,0,0.,24.0,0.,24.0
1981-08-30 13:42:44.430 ,2,1,0.,24.0,0.,24.0
1981-08-30 13:43:08.430 ,2,0,0.,24.0,0.,24.0
1981-08-30 13:43:32.430 ,1,1,0.,24.0,0.,24.0
1981-08-30 13:43:56.430 ,1,0,0.,24.0,0.,24.0
1981-08-30 13:44:20.430 ,0,1,0.,24.0,0.,24.0
1981-08-30 13:44:44.430 ,0,0,0.,24.0,0.,24.0
1981-08-30 13:45:08.430 ,0,1,0.,24.0,0.,24.0
1981-08-30 13:45:32.430 ,0,0,0.,24.0,0.,24.0
1981-08-30 13:45:56.430 ,1,1,0.,24.0,0.,24.0
1981-08-30 13:46:20.430 ,1,0,0.,24.0,0.,24.0
1981-08-30 13:46:44.430 ,2,1,0.,24.0,0.,24.0
1981-08-30 13:47:08.430 ,2,0,0.,24.0,0.,24.0
1981-08-30 13:47:32.430 ,3,1,0.,24.0,0.,24.0
1981-08-30 13:47:56.430 ,4,1,0.,24.0,0.,24.0
1981-08-30 13:48:20.430 ,5,1,0.,24.0,0.,24.0
1981-08-30 13:48:44.430 ,6,1,0.,24.0,0.,24.0
1981-08-30 13:49:08.430 ,7,1,0.,24.0,0.,24.0
1981-08-30 13:49:32.430 ,7,1,0.,24.0,0.,24.0
1981-08-30 13:49:56.430 ,6,1,0.,24.0,0.,24.0
1981-08-30 13:50:20.430 ,5,1,0.,24.0,0.,24.0
1981-08-30 13:50:44.430 ,4,1,0.,24.0,0.,24.0
1981-08-30 13:51:08.430 ,3,1,0.,24.0,0.,24.0
1981-08-30 13:51:32.430 ,2,1,0.,24.0,0.,24.0
1981-08-30 13:51:56.430 ,1,1,0.,24.0,0.,24.0
1981-08-30 13:52:20.430 ,0,1,0.,24.0,0.,24.0
1981-08-30 13:52:44.430 ,0,1,0.,24.0,0.,24.0
1981-08-30 13:53:08.430 ,1,1,0.,24.0,0.,24.0
1981-08-30 13:53:32.430 ,2,1,0.,24.0,0.,24.0
1981-08-30 13:53:56.430 ,3,1,0.,24.0,0.,24.0
1981-08-30 13:54:20.430 ,3,0,0.,24.0,0.,24.0
1981-08-30 13:54:44.430 ,4,1,0.,24.0,0.,24.0
1981-08-30 13:55:08.430 ,4,0,0.,24.0,0.,24.0
1981-08-30 13:55:32.430 ,5,1,0.,24.0,0.,24.0
1981-08-30 13:55:56.430 ,5,0,0.,24.0,0.,24.0
1981-08-30 13:56:20.430 ,6,1,0.,24.0,0.,24.0
1981-08-30 13:56:44.430 ,6,0,0.,24.0,0.,24.0
1981-08-30 13:57:08.430 ,7,1,0.,24.0,0.,24.0
1981-08-30 13:57:32.430 ,7,0,0.,24.0,0.,24.0
1981-08-30 13:57:56.430 ,7,1,0.,24.0,0.,24.0
1981-08-30 13:58:20.430 ,7,0,0.,24.0,0.,24.0
1981-08-30 13:58:44.430 ,6,1,0.,24.0,0.,24.0
1981-08-30 13:59:08.430 ,6,0,0.,24.0,0.,24.0
1981-08-30 13:59:32.430 ,5,1,0.,24.0,0.,24.0
1981-08-30 13:59:56.430 ,5,0,0.,24.0,0.,24.0
1981-08-30 14:00:20.430 ,4,1,0.,24.0,0.,24.0
1981-08-30 14:00:44.430 ,4,0,0.,24.0,0.,24.0
1981-08-30 14:01:08.430 ,3,1,0.,24.0,0.,24.0
1981-08-30 14:01:32.430 ,3,0,0.,24.0,0.,24.0
1981-08-30 14:01:56.430 ,2,1,0.,24.0,0.,24.0
1981-08-30 14:02:20.430 ,2,0,0.,24.0,0.,24.0
1981-08-30 14:02:44.430 ,1,1,0.,24.0,0.,24.0
1981-08-30 14:03:08.430 ,1,0,0.,24.0,0.,24.0
1981-08-30 14:03:32.430 ,0,1,0.,24.0,0.,24.0
1981-08-30 14:03:56.430 ,0,0,0.,24.0,0.,24.0
1981-08-30 14:04:20.430 ,0,1,0.,24.0,0.,24.0
1981-08-30 14:04:44.430 ,0,0,0.,24.0,0.,24.0
1981-08-30 14:05:08.430 ,1,1,0.,24.0,0.,24.0
1981-08-30 14:05:32.430 ,1,0,0.,24.0,0.,24.0
1981-08-30 14:05:56.430 ,2,1,0.,24.0,0.,24.0
1981-08-30 14:06:20.430 ,2,0,0.,24.0,0.,24.0
1981-08-30 14:06:44.430 ,3,1,0.,24.0,0.,24.0
1981-08-30 14:07:08.430 ,4,1,0.,24.0,0.,24.0
1981-08-30 14:07:32.430 ,5,1,0.,24.0,0.,24.0
1981-08-30 14:07:56.430 ,6,1,0.,24.0,0.,24.0
1981-08-30 14:08:20.430 ,7,1,0.,24.0,0.,24.0
1981-08-30 14:08:44.430 ,7,1,0.,24.0,0.,24.0
1981-08-30 14:09:08.430 ,6,1,0.,24.0,0.,24.0
1981-08-30 14:09:32.430 ,5,1,0.,24.0,0.,24.0
1981-08-30 14:09:56.430 ,4,1,0.,24.0,0.,24.0
1981-08-30 14:10:20.430 ,3,1,0.,24.0,0.,24.0
1981-08-30 14:10:44.430 ,2,1,0.,24.0,0.,24.0
1981-08-30 14:11:08.430 ,1,1,0.,24.0,0.,24.0
1981-08-30 14:11:32.430 ,0,1,0.,24.0,0.,24.0
1981-08-30 14:11:56.430 ,0,1,0.,24.0,0.,24.0
1981-08-30 14:12:20.430 ,1,1,0.,24.0,0.,24.0
1981-08-30 14:12:44.430 ,2,1,0.,24.0,0.,24.0
1981-08-30 14:13:08.430 ,3,1,0.,24.0,0.,24.0
1981-08-30 14:13:32.430 ,3,0,0.,24.0,0.,24.0
1981-08-30 14:13:56.430 ,4,1,0.,24.0,0.,24.0
1981-08-30 14:14:20.430 ,4,0,0.,24.0,0.,24.0
1981-08-30 14:14:44.430 ,5,1,0.,24.0,0.,24.0
1981-08-30 14:15:08.430 ,5,0,0.,24.0,0.,24.0
1981-08-30 14:15:32.430 ,6,1,0.,24.0,0.,24.0
1981-08-30 14:15:56.430 ,6,0,0.,24.0,0.,24.0
1981-08-30 14:16:20.430 ,7,1,0.,24.0,0.,24.0
1981-08-30 14:16:44.430 ,7,0,0.,24.0,0.,24.0
1981-08-30 14:17:08.430 ,7,1,0.,24.0,0.,24.0
1981-08-30 14:17:32.430 ,7,0,0.,24.0,0.,24.0
1981-08-30 14:17:56.430 ,6,1,0.,24.0,0.,24.0
1981-08-30 14:18:20.430 ,6,0,0.,24.0,0.,24.0
1981-08-30 14:18:44.430 ,5,1,0.,24.0,0.,24.0
1981-08-30 14:19:08.430 ,5,0,0.,24.0,0.,24.0
1981-08-30 14:19:32.430 ,4,1,0.,24.0,0.,24.0
1981-08-30 14:19:56.430 ,4,0,0.,24.0,0.,24.0
1981-08-30 14:20:20.430 ,3,1,0.,24.0,0.,24.0
1981-08-30 14:20:44.430 ,3,0,0.,24.0,0.,24.0
1981-08-30 14:21:08.430 ,2,1,0.,24.0,0.,24.0
1981-08-30 14:21:32.430 ,2,0,0.,24.0,0.,24.0
1981-08-30 14:21:56.430 ,1,1,0.,24.0,0.,24.0
1981-08-30 14:22:20.430 ,1,0,0.,24.0,0.,24.0
1981-08-30 14:22:44.430 ,0,1,0.,24.0,0.,24.0
1981-08-30 14:23:08.430 ,0,0,0.,24.0,0.,24.0
1981-08-30 14:23:32.430 ,0,1,0.,24.0,0.,24.0
1981-08-30 14:23:56.430 ,0,0,0.,24.0,0.,24.0
1981-08-30 14:24:20.430 ,1,1,0.,24.0,0.,24.0
1981-08-30 14:24:44.430 ,1,0,0.,24.0,0.,24.0
1981-08-30 14:25:08.430 ,2,1,0.,24.0,0.,24.0
1981-08-30 14:25:32.430 ,2,0,0.,24.0,0.,24.0
1981-08-30 14:25:56.430 ,3,1,0.,24.0,0.,24.0
1981-08-30 14:26:20.430 ,4,1,0.,24.0,0.,24.0
1981-08-30 14:26:44.430 ,5,1,0.,24.0,0.,24.0
1981-08-30 14:27:08.430 ,6,1,0.,24.0,0.,24.0
1981-08-30 14:27:32.430 ,7,1,0.,24.0,0.,24.0
1981-08-30 14:27:56.430 ,7,1,0.,24.0,0.,24.0
1981-08-30 14:28:20.430 ,6,1,0.,24.0,0.,24.0
1981-08-30 14:28:44.430 ,5,1,0.,24.0,0.,24.0
1981-08-30 14:29:08.430 ,4,1,0.,24.0,0.,24.0
1981-08-30 14:29:32.430 ,3,1,0.,24.0,0.,24.0
1981-08-30 14:29:56.430 ,2,1,0.,24.0,0.,24.0
1981-08-30 14:30:20.430 ,1,1,0.,24.0,0.,24.0
1981-08-30 14:30:44.430 ,0,1,0.,24.0,0.,24.0
1981-08-30 14:31:08.430 ,0,1,0.,24.0,0.,24.0
1981-08-30 14:31:32.430 ,1,1,0.,24.0,0.,24.0
1981-08-30 14:31:56.430 ,2,1,0.,24.0,0.,24.0
1981-08-30 14:32:20.430 ,3,1,0.,24.0,0.,24.0
1981-08-30 14:32:44.430 ,3,0,0.,24.0,0.,24.0
1981-08-30 14:33:08.430 ,4,1,0.,24.0,0.,24.0
1981-08-30 14:33:32.430 ,4,0,0.,24.0,0.,24.0
1981-08-30 14:33:56.430 ,5,1,0.,24.0,0.,24.0
1981-08-30 14:34:20.430 ,5,0,0.,24.0,0.,24.0
1981-08-30 14:34:44.430 ,6,1,0.,24.0,0.,24.0
1981-08-30 14:35:08.430 ,6,0,0.,24.0,0.,24.0
1981-08-30 14:35:32.430 ,7,1,0.,24.0,0.,24.0
1981-08-30 14:35:56.430 ,7,0,0.,24.0,0.,24.0
1981-08-30 14:36:20.430 ,7,1,0.,24.0,0.,24.0
1981-08-30 14:36:44.430 ,7,0,0.,24.0,0.,24.0
1981-08-30 14:37:08.430 ,6,1,0.,24.0,0.,24.0
1981-08-30 14:37:32.430 ,6,0,0.,24.0,0.,24.0
1981-08-30 14:37:56.430 ,5,1,0.,24.0,0.,24.0
1981-08-30 14:38:20.430 ,5,0,0.,24.0,0.,24.0
1981-08-30 14:38:44.430 ,4,1,0.,24.0,0.,24.0
1981-08-30 14:39:08.430 ,4,0,0.,24.0,0.,24.0
1981-08-30 14:39:32.430 ,3,1,0.,24.0,0.,24.0
1981-08-30 14:39:56.430 ,3,0,0.,24.0,0.,24.0
1981-08-30 14:40:20.430 ,2,1,0.,24.0,0.,24.0
1981-08-30 14:40:44.430 ,2,0,0.,24.0,0.,24.0
1981-08-30 14:41:08.430 ,1,1,0.,24.0,0.,24.0
1981-08-30 14:41:32.430 ,1,0,0.,24.0,0.,24.0
1981-08-30 14:41:56.430 ,0,1,0.,24.0,0.,24.0
1981-08-30 14:42:20.430 ,0,0,0.,24.0,0.,24.0
1981-08-30 14:42:44.430 ,0,1,0.,24.0,0.,24.0
1981-08-30 14:43:08.430 ,0,0,0.,24.0,0.,24.0
1981-08-30 14:43:32.430 ,1,1,0.,24.0,0.,24.0
1981-08-30 14:43:56.430 ,1,0,0.,24.0,0.,24.0
1981-08-30 14:44:20.430 ,2,1,0.,24.0,0.,24.0
1981-08-30 14:44:44.430 ,2,0,0.,24.0,0.,24.0
1981-08-30 14:45:08.430 ,3,1,0.,24.0,0.,24.0
1981-08-30 14:45:32.430 ,4,1,0.,24.0,0.,24.0
1981-08-30 14:45:56.430 ,5,1,0.,24.0,0.,24.0
1981-08-30 14:46:20.430 ,6,1,0.,24.0,0.,24.0
1981-08-30 14:46:44.430 ,7,1,0.,24.0,0.,24.0
1981-08-30 14:47:08.430 ,7,1,0.,24.0,0.,24.0
1981-08-30 14:47:32.430 ,6,1,0.,24.0,0.,24.0
1981-08-30 14:47:56.430 ,5,1,0.,24.0,0.,24.0
1981-08-30 14:48:20.430 ,4,1,0.,24.0,0.,24.0
1981-08-30 14:48:44.430 ,3,1,0.,24.0,0.,24.0
1981-08-30 14:49:08.430 ,2,1,0.,24.0,0.,24.0
1981-08-30 14:49:32.430 ,1,1,0.,24.0,0.,24.0
1981-08-30 14:49:56.430 ,0,1,0.,24.0,0.,24.0
1981-08-30 14:50:20.430 ,0,1,0.,24.0,0.,24.0
1981-08-30 14:50:44.420 ,1,1,0.,24.0,0.,24.0
1981-08-30 14:51:08.420 ,2,1,0.,24.0,0.,24.0
1981-08-30 14:51:32.420 ,3,1,0.,24.0,0.,24.0
1981-08-30 14:51:56.420 ,3,0,0.,24.0,0.,24.0
1981-08-30 14:52:20.420 ,4,1,0.,24.0,0.,24.0
1981-08-30 14:52:44.420 ,4,0,0.,24.0,0.,24.0
1981-08-30 14:53:08.420 ,5,1,0.,24.0,0.,24.0
1981-08-30 14:53:32.420 ,5,0,0.,24.0,0.,24.0
1981-08-30 14:53:56.420 ,6,1,0.,24.0,0.,24.0
1981-08-30 14:54:20.420 ,6,0,0.,24.0,0.,24.0
1981-08-30 14:54:44.420 ,7,1,0.,24.0,0.,24.0
1981-08-30 14:55:08.420 ,7,0,0.,24.0,0.,24.0
1981-08-30 14:55:32.420 ,7,1,0.,24.0,0.,24.0
1981-08-30 14:55:56.420 ,7,0,0.,24.0,0.,24.0
1981-08-30 14:56:20.420 ,6,1,0.,24.0,0.,24.0
1981-08-30 14:56:44.420 ,6,0,0.,24.0,0.,24.0
1981-08-30 14:57:08.420 ,5,1,0.,24.0,0.,24.0
1981-08-30 14:57:32.420 ,5,0,0.,24.0,0.,24.0
1981-08-30 14:57:56.420 ,4,1,0.,24.0,0.,24.0
1981-08-30 14:58:20.420 ,4,0,0.,24.0,0.,24.0
1981-08-30 14:58:44.420 ,3,1,0.,24.0,0.,24.0
1981-08-30 14:59:08.420 ,3,0,0.,24.0,0.,24.0
1981-08-30 14:59:32.420 ,2,1,0.,24.0,0.,24.0
1981-08-30 14:59:56.420 ,2,0,0.,24.0,0.,24.0
1981-08-30 15:00:20.420 ,1,1,0.,24.0,0.,24.0
